Location: Hurstbourne Priors
(51.2000°N, 1.3667°W)
Time: 19:30:45
(UTC+00:00)

Transit 4A - Pass Details

Date: 19 April 2021
Orbit: 870 x 974 km, 66.8° (Epoch: 09 May)

Event Time Altitude Azimuth Distance (km) Brightness Sun altitude
Rises 06:08:32 0° 318° (NW) 3,554 10.6 9.4°
Reaches altitude 10° 06:11:28 10° 330° (NNW) 2,592 10.0 9.8°
Maximum altitude 06:16:34 28° 28° (NNE) 1,609 9.8 10.6°
Drops below altitude 10° 06:21:34 10° 87° (E) 2,537 14.5 11.4°
Sets 06:24:24 0° 99° (E) 3,465 12.7 11.8°
